Wind_Speed
52 55 58 61 65 69 74 79 84 89 93 98 103 108 114 118 122 127 133 137 139 141 142 143 144 147 149 151 152 152 152 153 153 153 152 152 151 152 152 152 153 153 153 153 153 153 154 154 154 154 154 153 152 151 150 149 148 148 147 146 146 145 143 141 139 137 136 136 135 134 132 131 130 129
50 54 57 59 61 65 70 75 80 85 90 94 99 104 109 115 119 123 128 133 138 140 142 143 143 145 147 150 152 152 153 154 154 154 154 153 152 152 152 152 153 153 153 153 153 153 153 154 155 155 155 155 154 153 152 151 150 149 148 148 148 147 145 143 141 140 139 138 137 136 135 133 132 131
47 51 55 58 60 62 65 70 75 80 86 91 96 100 105 110 115 119 123 128 134 139 141 142 144 144 146 148 151 152 153 154 155 156 156 155 154 153 153 152 153 153 153 153 153 153 153 154 154 155 155 156 155 155 154 153 152 151 150 149 149 148 146 145 143 143 142 141 140 138 137 136 134 133
43 48 52 55 58 60 62 65 70 75 80 86 91 96 101 105 110 115 119 122 129 135 138 141 143 144 145 147 149 151 153 155 156 157 157 156 155 154 154 153 153 153 153 153 154 154 154 154 154 154 155 155 156 156 156 155 154 153 152 151 150 149 148 146 145 145 145 144 143 142 140 138 137 137
40 44 48 52 56 58 59 61 65 69 75 80 86 91 96 100 105 110 115 118 124 130 134 137 141 144 146 147 149 150 152 154 156 157 157 157 157 156 155 155 154 154 154 154 154 154 154 154 154 154 154 154 155 156 156 156 156 156 155 153 152 151 149 148 147 147 147 146 146 144 143 142 141 140
38 41 45 49 53 56 58 59 61 65 69 74 80 85 90 95 100 104 109 114 119 124 128 132 137 142 145 147 148 150 151 153 155 156 157 158 158 157 157 156 156 156 156 155 155 155 155 155 155 154 154 154 154 155 156 156 156 156 156 155 155 154 152 150 150 149 148 147 146 145 145 144 143 143
35 38 41 45 49 53 56 58 60 62 65 69 74 79 85 90 95 99 103 108 114 120 123 127 132 137 142 145 148 149 151 152 153 155 156 157 158 158 158 158 158 157 157 157 156 156 156 155 155 155 155 154 154 154 154 155 156 156 156 156 157 156 154 153 153 152 151 149 148 147 146 145 145 144
33 35 38 41 45 49 53 56 59 61 63 66 70 74 79 84 89 93 98 102 108 114 119 122 126 131 136 141 145 148 150 151 152 154 155 156 157 158 159 159 159 159 159 159 158 158 157 157 156 156 155 155 154 154 154 154 154 155 155 156 157 157 156 155 155 155 153 151 150 149 148 147 146 146
31 32 34 37 40 44 48 52 56 59 61 63 66 70 74 79 83 87 92 96 101 107 113 117 121 125 130 135 140 144 147 150 152 153 154 156 157 158 159 159 160 160 160 160 160 160 159 159 158 157 157 156 155 155 154 154 154 154 154 154 155 156 157 156 156 156 156 154 153 151 150 149 149 148
30 30 31 34 37 39 43 47 50 54 57 59 62 66 70 75 79 83 86 91 95 100 106 112 116 120 124 128 133 138 143 147 150 152 154 155 157 158 159 160 161 161 161 161 161 161 161 161 160 160 159 158 157 156 155 155 154 154 154 153 154 155 155 156 156 156 156 156 155 154 153 152 151 150
29 29 30 31 34 36 38 42 45 49 52 55 58 62 66 71 75 80 83 86 90 95 100 106 110 115 119 123 128 133 137 141 145 149 152 154 156 158 159 160 161 161 162 161 161 161 162 162 162 162 161 160 159 158 157 156 155 154 154 153 153 153 154 155 155 155 156 156 156 155 155 154 154 153
28 28 29 29 31 34 36 38 41 44 48 50 54 57 61 66 71 76 80 83 87 91 95 100 105 109 113 118 122 127 131 135 139 144 148 152 154 156 157 158 160 161 162 162 162 162 163 163 163 164 163 162 161 160 159 157 156 155 155 154 154 154 154 154 154 154 154 155 155 155 155 155 155 154
28 28 27 28 29 32 34 36 38 41 44 47 50 53 57 62 66 71 75 80 84 87 91 96 100 104 108 112 117 121 125 128 133 137 142 146 149 152 154 156 158 159 161 162 163 164 164 164 164 164 164 164 163 162 161 159 158 157 156 156 155 154 154 154 154 154 154 153 154 154 154 154 154 154
28 27 27 26 27 30 32 34 36 38 41 44 47 51 54 58 62 66 70 75 79 84 88 92 96 100 103 107 111 115 119 123 126 131 134 138 142 146 149 152 155 157 159 161 163 164 165 165 165 164 164 164 164 164 163 162 161 160 159 158 157 156 155 155 154 154 154 153 153 153 153 153 153 153
27 27 27 26 26 27 30 32 34 36 38 41 44 48 51 55 59 62 66 70 74 79 83 87 92 95 99 102 105 109 113 117 120 124 128 131 135 139 142 146 150 154 157 159 161 163 164 164 164 164 164 164 165 165 165 164 163 163 161 160 159 158 157 156 155 154 154 153 153 152 152 152 152 152
26 26 26 26 25 25 27 30 32 34 36 38 41 44 48 52 55 59 62 66 70 74 78 82 87 91 94 97 100 103 107 111 114 118 121 124 128 133 136 139 144 149 153 156 158 159 161 162 163 163 164 164 165 165 166 166 166 165 164 163 162 160 159 158 157 156 155 154 154 153 153 152 152 152
26 25 25 25 25 25 25 28 30 32 34 36 38 41 45 48 52 56 59 62 65 69 73 77 81 85 89 92 95 98 102 105 108 112 116 119 123 128 131 134 138 143 147 150 152 155 157 159 160 161 162 164 165 165 166 167 167 167 166 165 164 163 161 160 159 158 157 156 155 154 154 153 153 153
26 25 24 24 25 25 25 26 28 30 32 34 36 38 41 45 49 52 55 58 61 65 68 72 76 80 84 87 90 93 97 100 103 107 111 115 119 123 126 129 132 136 140 143 146 149 152 154 156 156 158 161 163 165 166 167 167 167 167 167 166 165 164 163 161 160 159 158 157 156 155 155 154 154
27 25 24 24 24 25 25 25 26 28 30 32 34 36 39 41 45 48 52 55 58 61 64 68 72 75 78 82 85 89 92 96 100 103 107 110 114 117 120 123 127 131 135 138 141 143 146 149 151 152 155 158 160 162 164 165 166 167 167 167 167 167 166 165 164 162 161 160 159 158 157 157 156 155
28 26 25 24 23 24 25 25 25 26 28 30 32 34 36 39 42 45 48 52 55 58 60 64 67 71 74 77 81 84 87 91 95 98 102 105 109 112 115 119 122 127 131 134 135 137 139 143 146 148 151 155 157 159 161 163 164 166 166 167 167 167 167 166 165 164 163 162 161 160 159 158 158 157
28 27 26 25 24 23 24 24 24 25 26 28 30 32 34 37 39 42 45 48 52 55 57 60 63 66 70 73 77 80 83 86 90 93 97 100 104 107 111 115 119 124 128 130 130 130 132 137 141 144 148 151 153 155 157 160 162 163 164 165 166 166 166 166 166 165 165 164 163 162 161 160 159 159
28 27 26 25 25 24 24 24 24 24 25 27 28 30 32 34 37 40 42 45 48 52 55 57 60 62 66 69 73 76 79 82 85 89 92 95 98 101 105 110 115 120 123 125 126 126 128 131 136 140 143 146 149 151 154 157 159 160 162 163 163 164 165 165 165 165 165 165 164 163 162 162 161 160
28 27 26 25 25 24 24 24 24 24 24 25 27 28 30 31 34 37 40 42 45 48 51 54 57 59 62 66 69 72 75 78 81 85 88 90 93 96 100 105 110 114 118 120 122 123 124 128 132 135 138 141 143 146 149 152 155 157 159 160 161 162 163 164 164 164 164 164 164 163 163 162 162 162
27 26 27 26 25 24 24 24 24 25 25 25 26 27 28 30 32 35 38 40 43 45 48 51 54 56 59 62 65 68 72 75 78 81 83 86 88 92 96 100 104 108 112 116 118 119 121 124 128 131 133 135 138 140 144 147 150 153 155 157 158 160 161 162 163 163 163 163 163 163 163 163 163 163
27 25 25 26 26 25 25 24 24 25 25 25 26 27 28 29 30 32 35 38 41 43 46 48 51 54 56 59 62 65 68 71 75 78 80 82 85 88 91 94 98 102 106 110 113 115 117 119 123 126 128 130 132 135 138 141 144 147 150 152 154 156 158 159 160 161 161 162 162 162 162 162 162 163
29 26 25 24 25 26 25 25 25 25 26 26 26 27 28 28 29 31 33 36 39 41 44 46 48 51 53 56 59 61 64 67 71 74 77 79 82 84 86 89 93 97 101 104 107 109 111 114 117 121 123 126 128 131 134 137 139 142 145 147 149 152 154 155 157 158 159 159 160 160 161 161 162 163
29 28 26 24 24 25 25 25 26 26 26 27 27 27 28 29 29 30 31 34 36 39 42 44 46 49 51 53 56 58 61 64 66 69 73 76 79 81 84 86 89 92 95 98 100 102 105 109 113 117 119 121 124 127 131 133 135 137 140 142 144 146 149 151 152 154 155 157 158 158 159 160 161 162
29 28 27 25 24 24 24 25 25 26 27 27 28 28 29 29 29 30 31 32 35 37 40 42 45 47 49 51 53 56 58 61 63 66 68 71 74 78 81 83 86 88 90 91 94 96 99 103 108 112 115 117 120 123 126 129 132 134 135 137 139 141 143 145 147 149 151 152 154 155 157 157 158 159
30 28 28 26 25 25 24 24 25 25 26 27 28 29 30 30 30 30 31 32 33 36 38 40 42 45 47 49 51 54 56 58 61 63 65 67 70 73 76 79 82 84 85 86 88 91 94 98 102 105 109 112 115 118 122 125 127 129 131 133 134 136 138 140 142 143 145 147 148 150 152 153 155 156
31 29 28 27 26 25 25 25 25 25 26 27 28 29 30 31 31 32 32 32 33 34 36 38 41 43 45 47 49 51 54 56 58 60 62 64 67 69 71 74 77 79 81 83 84 86 89 92 95 98 101 105 109 113 116 120 123 125 127 128 130 132 133 135 136 138 140 141 142 143 145 147 149 151
30 30 29 28 27 26 25 25 26 26 26 26 28 29 30 31 32 33 33 34 34 35 35 37 39 40 42 44 46 48 51 53 55 57 59 61 64 65 67 70 72 75 77 79 81 83 85 87 90 92 95 98 101 105 109 113 117 120 122 124 125 127 128 130 131 133 134 135 136 137 139 141 143 145
29 29 29 28 27 26 26 26 26 26 26 26 27 28 30 31 32 33 33 34 35 36 36 37 38 39 40 42 44 46 48 50 52 54 56 59 61 62 64 66 68 70 72 75 77 80 82 84 85 87 89 92 95 98 102 106 110 114 117 119 121 123 124 125 127 128 129 129 130 131 133 135 137 139
28 28 29 28 27 27 26 26 26 26 27 27 27 28 29 30 31 32 33 34 35 36 37 38 38 39 39 40 41 43 45 47 48 50 52 55 57 59 60 63 65 67 69 71 73 75 78 80 81 83 85 87 90 93 96 99 103 107 110 113 116 118 120 122 123 124 125 125 126 126 127 129 131 134
28 28 28 28 27 27 27 26 26 26 27 27 27 27 28 29 30 31 32 33 34 35 36 37 38 39 39 39 40 42 43 44 45 47 49 51 53 55 57 59 61 63 65 67 68 70 72 74 77 80 83 85 87 89 91 94 97 101 104 107 110 112 115 117 119 120 122 122 123 123 123 125 126 129
29 28 28 27 26 26 26 26 27 27 27 27 28 27 28 29 29 30 31 32 33 34 35 36 37 37 38 38 39 40 41 41 43 44 46 47 49 52 54 56 57 59 61 63 65 66 67 70 73 76 79 81 83 86 88 90 93 95 98 100 103 106 109 111 114 116 117 119 120 120 121 122 123 125
30 29 29 28 27 25 25 25 26 27 27 27 28 28 28 28 29 29 30 31 32 33 34 35 36 36 36 37 37 38 38 39 40 41 43 44 46 48 50 52 54 56 58 60 61 63 65 67 69 71 73 75 78 80 83 86 88 90 93 95 97 100 102 105 107 109 112 114 115 116 118 119 120 122
31 30 29 29 27 26 25 24 25 26 27 27 27 28 28 29 29 29 29 30 31 32 33 34 35 35 35 35 36 36 36 37 37 38 40 41 42 44 46 48 50 53 55 57 58 60 61 64 66 68 69 71 73 75 78 80 83 85 88 90 93 94 96 98 100 102 105 107 109 111 113 115 117 119
31 30 30 29 28 27 26 25 25 25 26 27 27 28 28 29 29 29 29 30 30 31 32 33 33 33 33 34 35 35 35 35 36 37 37 38 39 41 42 44 47 49 52 54 56 57 58 59 62 64 66 68 70 72 73 75 77 80 82 84 87 89 91 93 94 96 98 101 103 105 107 109 112 114
31 31 31 30 29 28 27 25 25 25 25 26 26 27 28 29 29 29 29 30 30 30 31 32 32 31 32 33 33 33 33 34 34 35 36 37 38 39 40 42 44 45 48 50 52 55 56 57 59 61 64 66 68 69 70 71 73 75 77 79 81 83 85 87 89 91 94 96 98 99 101 104 106 109
31 31 31 30 30 29 27 26 25 25 25 25 26 26 27 28 28 28 29 29 29 30 30 31 31 30 30 31 31 31 32 32 33 34 35 36 37 38 39 40 41 42 44 46 49 51 53 55 56 58 60 63 64 66 67 68 70 72 73 75 77 78 80 82 84 86 89 92 93 94 96 98 101 103
31 31 31 30 30 29 28 27 26 25 25 25 25 26 27 28 28 28 28 28 29 29 30 31 31 29 29 29 29 29 30 30 31 32 33 34 35 36 37 38 39 40 41 43 45 47 49 51 53 55 56 58 60 62 64 66 67 68 70 71 73 74 76 77 79 81 83 86 89 90 92 94 96 98
30 31 31 30 30 29 28 27 26 25 25 25 25 25 26 27 28 28 28 28 28 28 29 30 30 29 28 28 28 28 28 28 28 29 30 32 33 34 35 35 36 37 38 40 42 44 46 47 49 51 52 54 55 57 59 62 64 65 66 68 69 70 71 73 74 76 78 80 82 84 86 89 91 93
30 30 30 30 30 29 28 27 26 25 25 25 25 25 26 26 27 28 28 28 28 28 28 29 30 29 27 27 27 26 26 27 27 27 28 29 30 31 32 33 34 34 35 36 38 40 42 44 45 47 48 50 51 53 55 57 59 61 63 65 66 67 68 69 70 72 74 75 77 78 80 82 85 88
30 30 30 30 29 29 28 27 26 25 25 25 25 25 25 26 26 27 27 28 27 28 28 28 29 28 27 26 26 26 25 25 26 26 26 27 28 29 30 31 32 32 33 33 35 36 38 40 42 43 45 46 48 49 51 53 55 57 59 61 62 63 65 66 67 68 70 71 72 74 75 77 79 81
29 30 30 30 29 28 28 27 26 25 25 25 25 25 25 25 26 26 27 27 27 27 27 28 28 28 27 25 25 25 24 24 25 25 25 26 26 27 28 29 30 30 31 31 32 33 35 37 38 40 41 43 44 46 48 50 52 53 55 57 59 60 61 62 63 64 65 66 67 69 70 71 72 74
Wind_Direction
250 248 245 241 238 235 234 233 232 231 230 228 227 227 226 226 225 225 225 225 225 225 225 225 224 223 223 222 222 222 223 224 226 227 227 228 228 229 229 230 230 231 232 232 232 233 233 233 234 234 235 236 236 236 237 237 237 238 238 239 239 240 240 241 241 242 243 243 244 245 245 245 246 246
251 249 247 244 241 237 235 234 233 232 231 230 229 228 227 227 226 225 225 225 226 225 224 225 225 224 224 224 223 222 223 223 224 226 227 227 228 229 229 230 230 231 231 232 232 233 233 233 234 234 235 235 236 236 237 238 238 238 238 239 239 240 240 240 241 241 242 243 244 245 245 246 246 247
252 250 248 246 244 240 236 234 233 232 232 231 230 229 228 227 227 227 226 225 226 226 225 224 225 225 224 224 224 223 223 223 224 225 226 227 228 228 229 230 230 231 231 232 232 233 233 233 234 234 234 235 236 236 237 238 238 238 239 239 240 240 240 240 240 241 242 242 243 244 245 245 246 247
253 250 248 247 245 243 239 235 234 233 233 232 231 231 230 228 227 227 227 226 226 227 226 225 224 225 225 225 225 225 224 224 224 225 226 227 227 228 229 229 230 231 231 232 232 233 233 233 234 234 234 235 235 236 236 237 238 238 239 239 240 240 240 240 240 241 241 241 242 242 243 244 245 246
256 251 248 247 246 244 242 238 235 233 233 233 232 232 231 230 229 228 228 227 226 227 227 226 225 225 225 225 225 226 225 225 225 225 226 226 227 228 228 229 230 230 231 232 232 232 233 233 234 234 234 235 235 236 236 237 237 238 239 239 240 240 241 241 241 241 241 242 242 242 242 243 244 245
260 254 250 247 245 244 243 241 237 234 233 233 232 232 232 231 231 229 228 228 227 228 227 227 226 226 225 225 225 226 226 226 226 226 226 227 227 228 228 229 229 230 231 231 232 232 233 233 234 234 235 235 235 236 236 237 237 238 238 239 240 240 241 241 242 242 242 242 242 243 243 243 243 244
264 258 252 248 245 243 242 241 239 237 234 233 232 232 232 231 231 231 230 229 228 228 228 227 227 227 227 226 226 226 226 227 227 227 227 227 228 228 228 229 229 230 230 231 232 232 233 233 234 234 235 235 235 236 236 237 237 238 238 239 239 240 240 241 242 242 242 243 243 243 244 244 244 244
269 262 256 251 247 244 242 240 240 239 236 234 233 232 232 232 231 231 231 230 229 229 229 228 228 228 228 227 227 226 226 227 227 228 228 228 228 229 229 229 229 230 230 231 231 232 232 233 233 234 234 235 235 236 236 237 237 238 238 239 239 240 240 240 241 242 242 243 243 243 244 244 244 245
275 267 260 254 249 245 243 240 239 238 238 236 234 233 232 232 232 231 231 231 230 230 230 230 229 228 228 228 228 228 227 227 227 228 228 229 229 230 230 230 230 230 230 231 231 232 232 233 233 233 234 235 235 236 236 237 237 238 238 238 239 240 240 240 241 241 242 242 243 243 244 244 245 245
281 273 265 258 252 247 244 241 239 237 237 236 235 233 232 232 232 231 231 230 230 231 231 231 230 229 228 228 228 228 228 228 228 228 228 229 230 230 230 230 230 231 231 231 231 232 232 233 233 234 234 234 235 235 236 236 237 237 238 238 239 240 240 241 241 241 242 242 242 243 243 244 244 245
286 278 270 263 255 249 244 242 240 238 236 235 235 233 232 232 231 231 231 230 230 230 231 231 231 230 229 229 229 229 229 228 228 228 228 229 229 230 231 231 232 232 232 232 232 232 232 232 233 233 234 234 234 235 235 236 237 237 238 238 239 239 240 241 241 241 242 242 243 243 243 244 244 245
288 282 275 268 260 253 247 242 240 239 237 235 234 233 232 231 231 231 231 230 230 230 230 231 231 230 230 229 229 229 229 229 229 229 229 229 229 229 230 231 232 232 233 233 233 233 233 233 233 233 234 234 234 235 235 235 236 237 237 238 238 239 240 240 241 241 241 242 242 243 243 243 244 244
289 284 277 271 265 257 250 245 241 239 238 237 235 233 232 231 230 230 231 231 230 230 230 230 231 231 230 230 229 229 229 229 230 230 229 230 230 230 230 230 231 232 233 233 234 233 233 233 234 234 234 234 234 235 235 235 236 236 237 237 238 238 239 240 241 241 241 242 242 243 243 243 244 244
288 285 280 273 268 261 254 247 243 240 238 237 236 234 233 231 231 230 230 230 231 230 230 230 231 231 231 230 229 229 229 229 230 230 230 230 230 231 231 231 231 232 233 233 234 234 234 234 234 234 234 235 235 235 235 236 236 236 237 237 238 238 239 239 240 241 241 242 242 243 243 244 244 244
288 286 283 276 270 264 258 250 245 242 239 237 236 235 233 232 231 231 230 230 230 231 231 231 231 231 231 231 230 230 229 229 229 230 230 231 231 231 231 231 232 232 232 233 233 234 235 235 235 235 235 235 235 235 236 236 236 236 237 237 237 238 238 239 240 240 241 241 242 242 243 243 244 244
291 286 284 280 274 267 262 254 248 243 240 238 237 236 235 233 232 231 231 230 230 231 231 231 231 231 231 231 231 230 230 230 229 230 230 230 231 232 232 231 232 233 233 233 233 234 235 235 235 236 236 236 236 236 236 236 237 237 237 237 237 238 238 239 239 240 240 241 242 242 243 243 244 244
295 288 284 282 278 272 265 258 251 245 242 240 238 237 236 235 234 233 232 231 230 230 231 231 232 232 232 232 231 231 231 230 230 230 230 230 230 231 232 231 232 233 233 233 233 234 234 235 235 236 236 236 236 236 236 237 237 237 238 238 238 238 238 239 239 240 240 241 241 242 242 243 243 244
299 291 284 281 279 275 269 263 256 249 244 241 239 238 237 236 235 234 233 232 231 230 230 231 232 232 232 232 231 231 231 231 230 230 229 229 229 230 231 232 232 233 233 233 234 234 234 235 235 235 236 236 236 237 237 237 237 237 238 238 239 239 239 239 239 240 240 240 241 241 242 242 243 243
301 296 288 282 278 275 271 267 261 253 247 243 241 239 238 237 237 236 235 234 233 231 230 230 231 232 232 232 232 231 231 230 230 230 230 229 229 230 231 232 232 233 233 233 233 234 234 235 235 235 235 236 236 237 237 237 238 238 238 238 239 239 239 240 240 240 240 241 241 241 242 242 243 243
302 299 293 285 279 274 271 268 264 258 251 245 242 241 240 239 238 237 236 236 235 233 232 230 230 231 232 232 232 232 231 231 231 230 230 230 229 229 230 230 232 233 234 233 233 233 234 235 235 235 235 236 236 236 237 237 238 238 238 239 239 239 240 240 240 241 241 241 241 242 242 242 243 243
301 300 297 290 283 276 271 268 264 262 256 250 244 242 241 241 240 238 237 236 236 235 234 232 231 230 231 232 232 232 232 232 231 231 231 230 230 229 229 229 230 232 233 234 233 233 233 234 235 235 236 236 236 236 237 237 237 238 238 239 239 240 240 241 241 241 241 242 242 242 243 243 243 244
302 299 296 293 287 280 275 269 265 262 260 255 249 244 242 242 241 240 239 237 237 236 236 235 233 231 230 231 232 232 232 232 232 231 231 231 230 230 230 230 230 231 232 233 234 233 233 233 234 235 235 236 236 237 237 237 237 238 238 238 239 240 240 241 241 242 242 242 243 243 243 244 244 244
303 299 296 293 289 283 278 273 268 263 260 258 253 247 244 243 242 242 241 239 238 237 237 236 235 234 232 230 231 231 232 233 232 232 232 231 230 230 230 231 231 231 232 233 233 233 233 233 234 234 235 235 236 236 237 238 238 238 238 238 238 239 239 240 241 241 242 242 243 243 244 244 245 245
304 300 296 293 290 285 280 276 272 267 263 260 257 252 247 244 243 243 241 241 240 238 238 237 236 235 234 233 231 231 231 232 233 233 233 232 231 231 230 231 231 232 232 233 233 233 232 233 233 234 234 235 235 236 237 237 238 238 239 239 239 239 239 239 240 241 241 242 242 243 244 244 245 245
306 301 296 293 291 288 283 278 274 270 266 263 259 255 250 246 245 244 243 242 241 240 239 238 237 236 236 235 234 232 231 231 232 233 233 233 233 232 232 231 231 232 232 233 233 233 233 233 234 234 235 235 235 236 236 237 238 238 239 239 239 239 239 239 240 240 240 241 242 242 243 244 244 245
307 303 297 292 289 288 285 281 276 273 269 265 261 258 255 250 247 246 245 243 242 241 240 239 239 238 237 236 236 235 234 232 232 233 233 234 234 234 233 233 232 232 232 232 233 233 233 233 234 235 235 235 236 236 237 237 237 238 238 239 239 240 240 240 240 240 240 240 241 241 242 243 243 244
306 304 300 293 288 285 283 281 278 274 271 268 264 261 257 253 250 248 247 245 243 242 241 240 240 239 239 238 237 236 236 235 234 233 233 233 234 235 235 234 234 233 233 233 233 233 232 233 234 234 235 235 235 236 237 237 237 238 238 238 239 239 240 240 240 240 240 240 240 241 241 242 242 243
304 304 302 297 291 285 281 279 277 274 271 268 266 263 260 256 252 250 248 247 246 244 242 241 240 240 240 239 239 238 237 237 237 236 235 234 234 235 235 236 235 235 235 234 233 233 232 232 233 233 234 234 235 235 236 237 238 238 238 238 239 239 240 240 240 241 241 241 241 241 241 241 242 242
304 303 301 299 295 288 282 279 276 273 270 268 266 264 263 260 257 253 250 249 248 246 244 242 241 240 240 240 240 240 239 239 238 238 238 236 235 235 235 236 237 237 237 236 235 234 233 233 233 233 233 234 234 235 236 237 238 238 239 239 239 239 239 240 240 240 241 241 241 241 242 242 242 242
302 302 301 299 297 292 286 281 277 273 270 267 265 263 262 261 259 257 255 252 250 248 246 245 243 242 241 240 240 240 240 240 240 240 239 239 238 237 237 236 237 237 238 238 237 237 236 235 234 234 234 233 234 234 235 236 238 238 239 239 239 240 240 240 240 240 240 241 241 241 242 242 243 243
299 300 300 298 297 294 289 283 279 275 271 268 265 262 260 259 258 257 257 256 254 252 250 248 245 244 242 242 241 241 241 241 241 241 241 241 240 240 239 239 238 237 237 237 237 238 237 237 236 235 235 234 234 234 235 236 237 238 239 239 240 240 240 241 241 241 240 240 241 241 241 242 242 243
296 297 298 297 296 295 291 286 281 277 274 270 267 264 261 258 256 255 255 255 255 255 254 252 250 247 245 243 243 243 243 243 242 242 242 242 241 241 241 241 240 239 238 237 236 236 237 237 237 237 237 236 235 235 235 235 236 237 238 239 239 240 240 241 241 241 241 241 241 240 240 241 242 242
293 295 295 296 295 295 292 288 283 279 276 273 269 266 263 260 258 256 255 254 254 254 254 253 252 250 248 246 244 244 244 244 244 243 243 243 243 242 241 241 241 241 240 239 238 237 236 237 237 237 237 237 237 236 236 236 236 237 237 238 238 239 240 240 241 241 242 242 241 241 240 240 241 241
292 293 293 294 294 294 293 290 286 281 277 274 272 269 266 263 260 258 256 255 255 255 255 254 254 252 251 249 247 246 245 244 245 244 244 244 244 244 243 242 241 241 241 241 240 239 238 237 237 236 236 237 237 237 236 236 236 236 237 237 238 238 239 239 240 240 241 241 241 241 241 241 241 241
292 292 292 292 293 293 292 291 288 284 279 276 274 272 268 265 262 260 258 257 257 256 256 256 255 254 253 252 250 249 247 246 245 245 245 244 244 244 244 243 242 242 241 241 241 240 239 238 237 237 236 236 236 237 237 237 237 237 237 237 238 238 238 239 239 240 240 240 241 241 241 241 241 241
291 292 292 292 292 292 292 291 290 286 282 278 275 273 271 269 266 263 261 259 258 258 258 258 257 256 255 255 253 252 250 249 247 246 245 245 244 243 243 244 243 243 242 241 240 239 238 239 238 238 238 237 237 236 236 237 238 238 238 238 238 239 239 239 239 239 240 240 240 240 240 240 241 241
290 291 292 293 293 292 292 292 291 288 285 280 277 275 273 271 269 266 264 261 260 259 259 259 259 258 258 257 256 255 254 253 251 249 247 246 245 244 244 243 243 243 242 242 241 239 238 238 238 239 239 238 238 237 237 237 237 237 238 238 239 239 239 239 239 239 240 240 240 240 240 240 240 241
288 290 291 292 293 293 292 291 291 289 286 282 278 275 274 273 271 270 267 265 262 261 261 260 260 259 259 259 258 257 256 255 254 253 251 248 247 245 245 244 243 242 242 241 241 240 239 237 237 237 238 238 238 238 237 237 237 237 237 237 238 239 239 239 239 240 240 240 240 240 240 240 240 240
287 289 290 291 292 293 292 291 291 290 288 284 280 276 274 273 272 271 269 267 265 263 262 262 261 260 260 259 259 258 257 257 255 254 253 251 249 247 246 245 244 243 242 241 241 240 239 238 236 236 236 236 237 237 238 238 238 238 238 237 237 237 238 238 238 238 239 239 239 239 239 239 239 240
285 287 288 290 291 293 293 292 292 291 290 287 282 278 274 273 273 271 270 268 266 264 263 263 262 261 259 259 259 259 258 257 256 255 254 252 251 249 248 246 245 244 242 241 240 240 239 238 237 236 236 236 236 237 237 237 238 238 238 238 238 238 237 237 237 237 237 238 238 238 238 238 239 239
284 285 287 289 290 292 293 293 293 293 292 290 285 281 276 274 273 272 271 269 267 266 264 264 264 262 260 259 259 259 258 257 256 255 254 253 251 250 248 247 246 245 243 241 240 239 238 238 238 238 237 237 237 237 237 237 237 238 238 239 239 239 238 238 237 237 237 237 237 237 237 237 238 238
282 284 285 287 289 291 292 293 293 294 293 292 288 284 279 275 274 273 272 271 269 267 265 265 265 263 261 260 260 259 259 258 257 256 255 253 252 250 249 248 247 246 244 242 241 239 238 238 238 238 238 238 238 238 237 237 238 238 238 239 239 239 239 239 239 238 238 238 238 237 237 237 237 237
280 282 284 285 287 289 291 293 293 294 294 293 290 286 281 277 274 274 274 273 271 269 267 266 265 264 262 261 261 260 260 260 259 258 256 254 252 251 250 248 247 246 245 244 242 241 240 239 238 238 238 238 238 237 237 237 237 238 238 238 239 239 239 239 239 239 239 239 239 238 238 237 237 237
277 280 282 284 286 288 290 292 293 294 294 293 292 288 283 279 275 273 273 273 272 271 268 267 266 265 263 261 261 261 261 261 261 259 257 255 253 252 250 249 248 247 245 245 243 242 241 241 240 240 239 239 238 238 237 237 237 237 237 238 238 238 239 239 239 239 239 239 239 239 239 238 237 237
276 278 281 283 285 287 290 291 293 293 294 294 293 291 286 281 276 273 272 272 271 271 269 268 267 267 264 261 260 260 261 261 261 261 259 257 255 253 251 249 248 247 246 245 244 242 241 241 241 240 240 240 239 238 238 237 237 237 237 237 237 237 238 238 239 239 239 239 240 240 240 240 239 239
Height
10015 10016 10017 10020 10023 10027 10031 10035 10040 10044 10050 10055 10060 10066 10072 10079 10087 10097 10105 10112 10122 10131 10140 10151 10163 10172 10181 10191 10201 10212 10222 10230 10238 10247 10256 10266 10275 10286 10295 10305 10316 10325 10333 10343 10353 10363 10372 10381 10390 10397 10404 10412 10421 10428 10434 10442 10450 10457 10464 10471 10477 10484 10493 10501 10509 10515 10520 10525 10529 10534 10541 10547 10553 10559
10007 10008 10009 10010 10013 10017 10021 10024 10029 10033 10038 10044 10048 10054 10060 10067 10074 10083 10092 10100 10106 10114 10124 10135 10145 10157 10168 10178 10187 10197 10206 10215 10222 10229 10238 10248 10258 10269 10279 10289 10299 10309 10318 10327 10336 10345 10354 10363 10372 10381 10389 10397 10405 10413 10419 10426 10434 10442 10450 10456 10461 10469 10479 10488 10496 10502 10507 10512 10516 10521 10528 10534 10540 10546
10000 10000 10000 10001 10003 10006 10010 10014 10018 10022 10027 10032 10037 10042 10048 10055 10062 10069 10077 10087 10093 10098 10109 10119 10128 10141 10153 10163 10173 10182 10191 10199 10206 10213 10221 10231 10241 10252 10263 10273 10283 10292 10302 10311 10319 10328 10336 10345 10355 10364 10373 10381 10388 10396 10404 10410 10418 10425 10433 10440 10445 10454 10464 10473 10481 10488 10493 10498 10503 10508 10514 10520 10527 10532
9992 9992 9992 9993 9994 9996 10000 10004 10008 10013 10017 10021 10026 10032 10037 10043 10050 10056 10063 10075 10080 10082 10093 10106 10114 10124 10136 10147 10156 10166 10175 10183 10190 10198 10206 10216 10226 10236 10247 10258 10267 10275 10284 10294 10303 10311 10319 10328 10337 10347 10356 10364 10372 10380 10388 10395 10403 10410 10417 10424 10431 10439 10447 10456 10465 10471 10475 10480 10486 10492 10500 10507 10512 10516
9984 9984 9985 9985 9986 9987 9990 9994 9999 10003 10007 10011 10016 10021 10027 10032 10038 10044 10051 10062 10067 10068 10079 10092 10100 10108 10118 10129 10140 10150 10160 10169 10176 10184 10192 10201 10210 10220 10231 10241 10250 10259 10267 10276 10285 10294 10302 10311 10320 10329 10338 10347 10356 10364 10371 10379 10386 10394 10401 10409 10417 10423 10431 10440 10447 10452 10457 10463 10470 10477 10485 10492 10496 10500
9976 9977 9977 9978 9978 9980 9982 9985 9989 9993 9997 10001 10005 10009 10015 10021 10027 10033 10040 10049 10053 10057 10067 10078 10086 10094 10102 10112 10123 10133 10143 10154 10162 10170 10179 10188 10196 10205 10215 10224 10234 10243 10250 10258 10267 10276 10285 10294 10303 10312 10321 10330 10339 10347 10354 10362 10370 10379 10386 10394 10400 10406 10415 10424 10428 10433 10441 10449 10456 10463 10471 10477 10482 10486
9969 9969 9969 9970 9971 9972 9974 9976 9978 9982 9987 9991 9995 9999 10004 10009 10015 10021 10029 10036 10041 10045 10054 10064 10072 10079 10087 10098 10107 10115 10126 10138 10148 10158 10167 10175 10183 10191 10200 10209 10217 10226 10233 10241 10249 10259 10268 10277 10286 10295 10303 10313 10321 10329 10337 10345 10353 10363 10370 10377 10383 10389 10399 10407 10411 10415 10424 10434 10441 10449 10455 10462 10468 10473
9963 9962 9962 9962 9963 9964 9966 9968 9970 9973 9977 9981 9985 9989 9994 9999 10004 10010 10017 10024 10030 10034 10040 10049 10058 10065 10073 10083 10092 10100 10111 10122 10132 10144 10153 10160 10169 10177 10185 10193 10201 10208 10216 10224 10233 10242 10251 10260 10269 10278 10286 10295 10304 10312 10321 10328 10336 10345 10353 10361 10367 10372 10381 10390 10395 10399 10407 10418 10426 10432 10439 10445 10451 10457
9957 9956 9955 9955 9956 9957 9958 9959 9961 9964 9967 9971 9976 9980 9984 9989 9993 9999 10006 10012 10018 10023 10028 10035 10044 10052 10060 10069 10078 10086 10096 10106 10114 10125 10136 10145 10155 10163 10170 10177 10184 10191 10199 10208 10217 10226 10234 10243 10252 10261 10270 10278 10286 10295 10303 10311 10319 10328 10336 10344 10351 10356 10363 10372 10380 10384 10390 10400 10409 10416 10422 10428 10434 10440
9951 9949 9949 9948 9949 9949 9951 9952 9954 9956 9958 9962 9966 9970 9975 9979 9983 9988 9994 10001 10006 10012 10017 10022 10029 10039 10048 10056 10063 10071 10080 10089 10097 10107 10118 10128 10137 10145 10153 10161 10168 10175 10184 10193 10202 10211 10219 10226 10234 10243 10252 10261 10270 10278 10287 10295 10303 10311 10319 10327 10335 10341 10346 10353 10362 10369 10375 10382 10391 10399 10405 10411 10417 10424
9946 9944 9943 9942 9942 9942 9943 9945 9946 9948 9950 9953 9957 9961 9965 9969 9973 9978 9982 9988 9994 9999 10004 10009 10015 10024 10033 10041 10048 10055 10062 10072 10084 10094 10102 10109 10116 10125 10135 10145 10154 10162 10170 10179 10188 10196 10203 10210 10217 10225 10234 10243 10253 10262 10270 10279 10287 10295 10303 10311 10318 10324 10330 10336 10344 10352 10359 10365 10372 10381 10388 10395 10401 10407
9940 9939 9937 9936 9936 9936 9937 9938 9939 9941 9943 9946 9949 9952 9956 9960 9964 9968 9972 9977 9983 9988 9992 9996 10002 10009 10018 10027 10035 10041 10048 10059 10071 10077 10082 10090 10099 10109 10120 10131 10140 10148 10157 10165 10172 10180 10187 10194 10201 10208 10217 10226 10236 10245 10254 10263 10271 10278 10285 10293 10300 10306 10313 10319 10325 10334 10342 10349 10355 10363 10371 10378 10384 10391
9935 9934 9932 9931 9930 9930 9930 9931 9932 9934 9936 9938 9941 9944 9947 9951 9955 9958 9963 9967 9972 9976 9980 9984 9988 9995 10003 10012 10020 10027 10036 10047 10055 10059 10067 10079 10089 10097 10106 10116 10124 10132 10142 10150 10157 10164 10171 10178 10185 10193 10203 10212 10221 10229 10238 10246 10254 10261 10267 10274 10281 10288 10295 10301 10308 10315 10323 10331 10338 10345 10352 10360 10367 10374
9930 9928 9927 9926 9924 9924 9924 9925 9926 9927 9929 9931 9934 9936 9939 9943 9946 9949 9954 9958 9961 9965 9969 9972 9977 9983 9989 9997 10006 10014 10023 10032 10040 10046 10057 10070 10077 10082 10092 10102 10110 10117 10124 10132 10139 10147 10154 10162 10171 10180 10190 10200 10207 10214 10222 10230 10237 10243 10249 10255 10262 10269 10277 10284 10291 10298 10305 10314 10322 10329 10335 10342 10350 10357
9925 9923 9922 9921 9920 9919 9918 9919 9919 9920 9922 9924 9926 9929 9931 9934 9938 9941 9945 9948 9952 9955 9959 9962 9966 9971 9977 9984 9994 10003 10010 10019 10028 10035 10045 10056 10063 10069 10080 10090 10096 10100 10106 10113 10120 10128 10136 10147 10158 10168 10177 10186 10192 10199 10207 10213 10219 10224 10230 10237 10245 10253 10260 10267 10274 10281 10289 10296 10304 10312 10319 10325 10332 10339
9920 9918 9917 9916 9914 9914 9913 9913 9914 9914 9915 9917 9919 9922 9924 9927 9929 9933 9936 9939 9943 9946 9949 9953 9957 9961 9966 9973 9983 9991 9997 10006 10016 10024 10033 10044 10050 10055 10065 10075 10079 10082 10087 10094 10103 10113 10122 10131 10144 10155 10163 10170 10176 10183 10191 10197 10201 10207 10213 10220 10229 10236 10244 10251 10257 10265 10272 10279 10287 10294 10301 10308 10314 10321
9915 9913 9912 9911 9909 9909 9908 9908 9908 9908 9909 9911 9913 9915 9917 9919 9922 9924 9928 9931 9934 9937 9940 9944 9948 9951 9956 9963 9971 9978 9985 9995 10004 10011 10020 10029 10034 10038 10046 10057 10062 10065 10070 10080 10090 10101 10107 10114 10127 10140 10148 10154 10160 10166 10174 10179 10183 10190 10196 10203 10212 10220 10227 10234 10241 10247 10254 10261 10268 10276 10283 10290 10296 10303
9910 9909 9907 9906 9905 9904 9903 9903 9903 9903 9903 9904 9906 9908 9910 9912 9915 9917 9920 9923 9926 9929 9932 9935 9938 9942 9947 9953 9960 9967 9974 9982 9989 9996 10004 10012 10018 10023 10031 10040 10047 10050 10056 10066 10075 10084 10092 10098 10108 10123 10132 10136 10141 10149 10155 10160 10165 10173 10180 10188 10195 10203 10210 10217 10224 10230 10237 10244 10251 10258 10265 10272 10278 10285
9905 9904 9902 9901 9900 9899 9898 9898 9898 9898 9898 9898 9900 9901 9903 9905 9907 9910 9912 9915 9917 9920 9923 9926 9929 9933 9937 9943 9948 9955 9961 9967 9973 9980 9988 9997 10005 10013 10020 10028 10035 10037 10040 10048 10057 10068 10078 10084 10092 10106 10114 10115 10120 10130 10137 10143 10149 10156 10164 10171 10177 10184 10191 10199 10206 10214 10221 10228 10235 10241 10248 10255 10261 10268
9900 9899 9897 9896 9895 9895 9894 9893 9893 9893 9893 9893 9894 9895 9896 9898 9900 9902 9905 9907 9909 9912 9915 9918 9921 9925 9929 9933 9937 9943 9949 9955 9961 9967 9974 9982 9990 9998 10006 10015 10020 10020 10020 10027 10039 10054 10067 10071 10076 10088 10093 10093 10101 10112 10119 10126 10132 10139 10146 10153 10159 10167 10174 10182 10190 10198 10205 10212 10219 10225 10232 10238 10244 10251
9896 9894 9893 9891 9890 9890 9889 9888 9888 9888 9888 9888 9888 9889 9890 9892 9894 9895 9898 9899 9902 9904 9907 9910 9914 9917 9920 9924 9928 9933 9938 9943 9950 9955 9961 9968 9975 9983 9992 9999 10003 10002 10002 10009 10024 10041 10054 10057 10059 10068 10072 10074 10084 10095 10100 10106 10113 10120 10128 10136 10143 10151 10159 10166 10174 10181 10189 10196 10202 10209 10216 10222 10228 10234
9891 9889 9888 9887 9886 9885 9884 9884 9883 9883 9883 9883 9883 9884 9884 9886 9887 9889 9891 9893 9895 9897 9899 9902 9906 9909 9912 9915 9919 9923 9927 9932 9938 9942 9948 9955 9963 9972 9979 9983 9986 9987 9989 9997 10010 10026 10039 10041 10042 10048 10053 10057 10068 10077 10081 10086 10093 10101 10111 10119 10127 10135 10142 10150 10157 10165 10172 10180 10187 10194 10201 10207 10212 10217
9887 9885 9883 9882 9881 9880 9879 9879 9878 9878 9878 9878 9878 9879 9879 9880 9881 9883 9885 9886 9888 9890 9892 9894 9897 9900 9904 9907 9910 9914 9918 9922 9926 9930 9935 9943 9951 9958 9963 9966 9971 9975 9979 9986 9995 10008 10020 10023 10023 10029 10035 10041 10051 10059 10062 10067 10075 10083 10092 10100 10109 10117 10124 10132 10139 10146 10154 10163 10171 10178 10185 10191 10196 10200
9883 9880 9878 9877 9876 9876 9875 9874 9873 9873 9873 9873 9873 9874 9874 9875 9875 9877 9878 9880 9881 9883 9885 9887 9890 9892 9896 9899 9902 9906 9909 9913 9916 9920 9925 9932 9938 9943 9948 9953 9959 9964 9968 9973 9980 9990 10001 10005 10006 10013 10020 10027 10036 10043 10046 10051 10058 10064 10072 10080 10089 10097 10105 10112 10120 10128 10137 10145 10154 10162 10169 10175 10179 10183
9879 9877 9874 9872 9871 9870 9870 9869 9869 9868 9868 9868 9868 9869 9869 9869 9870 9871 9872 9874 9875 9877 9878 9880 9883 9885 9888 9891 9894 9898 9901 9905 9907 9910 9915 9921 9925 9930 9935 9941 9946 9950 9954 9959 9965 9976 9986 9992 9995 10001 10007 10014 10022 10027 10030 10035 10041 10046 10053 10061 10069 10076 10084 10093 10102 10112 10121 10129 10137 10144 10151 10157 10162 10166
9873 9872 9870 9868 9866 9865 9864 9864 9864 9863 9863 9863 9863 9864 9864 9864 9865 9865 9866 9868 9869 9870 9872 9874 9875 9878 9880 9883 9886 9889 9893 9896 9899 9902 9906 9910 9914 9918 9923 9929 9933 9936 9940 9945 9953 9963 9974 9980 9984 9988 9993 10001 10007 10010 10013 10019 10024 10029 10036 10043 10050 10057 10064 10073 10083 10093 10102 10110 10118 10126 10132 10138 10142 10146
9869 9867 9865 9864 9863 9861 9860 9859 9859 9858 9858 9858 9858 9858 9859 9859 9859 9860 9861 9862 9863 9864 9866 9867 9869 9871 9873 9875 9878 9881 9884 9887 9890 9893 9897 9901 9904 9906 9910 9915 9919 9922 9927 9934 9942 9951 9960 9965 9968 9972 9978 9986 9992 9995 9998 10002 10007 10012 10019 10027 10033 10040 10046 10054 10064 10072 10080 10088 10097 10105 10112 10118 10124 10129
9864 9862 9860 9859 9858 9857 9856 9855 9854 9854 9853 9853 9853 9853 9853 9854 9854 9855 9855 9856 9857 9858 9860 9861 9863 9864 9866 9868 9871 9873 9876 9879 9881 9884 9888 9892 9895 9897 9900 9903 9907 9910 9915 9923 9930 9937 9944 9948 9951 9956 9962 9970 9976 9980 9982 9985 9989 9996 10003 10010 10017 10023 10030 10037 10045 10053 10060 10068 10077 10085 10092 10100 10108 10114
9858 9857 9855 9854 9852 9852 9851 9850 9850 9849 9849 9848 9848 9848 9848 9848 9849 9849 9850 9850 9851 9852 9854 9855 9856 9858 9859 9861 9863 9865 9868 9870 9873 9875 9879 9882 9886 9888 9891 9894 9897 9901 9906 9912 9918 9924 9929 9933 9937 9942 9948 9955 9961 9965 9968 9970 9974 9980 9987 9993 10000 10006 10014 10021 10027 10035 10043 10050 10059 10067 10074 10082 10090 10096
9852 9851 9850 9849 9848 9846 9845 9845 9845 9844 9844 9844 9843 9843 9843 9843 9843 9844 9844 9845 9846 9847 9848 9849 9850 9852 9853 9854 9856 9858 9860 9862 9864 9867 9870 9873 9875 9879 9882 9885 9888 9892 9897 9902 9906 9911 9916 9920 9924 9929 9936 9941 9946 9951 9954 9957 9960 9965 9971 9978 9984 9990 9997 10003 10010 10017 10025 10033 10041 10050 10058 10065 10073 10078
9848 9846 9845 9844 9843 9842 9840 9840 9839 9839 9839 9839 9839 9839 9839 9838 9838 9838 9838 9839 9839 9840 9841 9843 9844 9845 9847 9848 9849 9851 9852 9854 9857 9859 9861 9863 9866 9869 9872 9876 9878 9882 9886 9891 9895 9898 9902 9907 9912 9917 9923 9929 9933 9938 9942 9945 9948 9952 9956 9963 9969 9975 9981 9988 9994 10000 10008 10016 10025 10034 10042 10049 10055 10060
9844 9842 9840 9839 9838 9837 9836 9835 9834 9834 9834 9834 9834 9834 9834 9833 9833 9833 9833 9834 9834 9834 9835 9836 9837 9839 9840 9842 9843 9844 9845 9847 9849 9852 9853 9854 9857 9860 9863 9865 9868 9871 9875 9880 9883 9887 9890 9895 9900 9905 9911 9916 9920 9925 9929 9933 9936 9939 9943 9949 9955 9960 9966 9972 9978 9983 9991 10000 10009 10018 10026 10033 10038 10042
9839 9838 9836 9834 9833 9832 9831 9830 9829 9828 9828 9828 9828 9828 9828 9828 9828 9828 9828 9828 9828 9829 9829 9830 9831 9832 9833 9835 9836 9837 9838 9839 9842 9844 9845 9846 9848 9851 9854 9855 9858 9861 9864 9868 9872 9876 9880 9885 9889 9894 9898 9902 9906 9910 9915 9919 9922 9925 9929 9935 9940 9945 9950 9956 9962 9968 9975 9982 9990 10000 10008 10015 10020 10024
9833 9833 9832 9830 9829 9827 9826 9824 9824 9823 9822 9822 9823 9823 9823 9823 9823 9822 9822 9823 9823 9823 9823 9824 9824 9826 9827 9828 9829 9830 9831 9833 9834 9836 9837 9839 9840 9842 9844 9846 9849 9852 9855 9858 9862 9866 9870 9874 9878 9881 9884 9888 9891 9896 9900 9904 9908 9911 9915 9920 9925 9930 9935 9941 9946 9952 9958 9964 9973 9981 9989 9996 10002 10007
9827 9827 9826 9826 9824 9823 9821 9820 9818 9818 9817 9817 9817 9817 9817 9817 9817 9817 9817 9817 9817 9817 9817 9818 9818 9819 9820 9821 9822 9823 9824 9826 9827 9828 9829 9831 9833 9834 9836 9837 9840 9843 9845 9848 9852 9856 9859 9862 9865 9868 9872 9876 9880 9884 9888 9892 9895 9898 9903 9908 9911 9916 9921 9926 9932 9937 9942 9948 9956 9963 9970 9977 9984 9989
9821 9821 9820 9820 9819 9818 9817 9815 9814 9812 9812 9811 9811 9811 9811 9811 9811 9811 9811 9811 9811 9811 9811 9812 9812 9813 9814 9814 9815 9816 9817 9818 9819 9821 9822 9823 9825 9826 9828 9829 9831 9833 9836 9838 9842 9845 9848 9850 9853 9857 9861 9865 9869 9873 9877 9880 9883 9887 9892 9896 9899 9903 9909 9914 9919 9924 9929 9934 9940 9947 9954 9960 9966 9971
9815 9815 9814 9814 9814 9813 9812 9811 9809 9808 9807 9806 9806 9806 9805 9805 9805 9806 9806 9806 9806 9806 9806 9806 9806 9807 9808 9808 9808 9809 9810 9811 9812 9813 9814 9816 9817 9818 9820 9821 9823 9824 9826 9829 9832 9835 9838 9841 9844 9847 9850 9854 9857 9860 9864 9868 9872 9876 9880 9883 9887 9891 9897 9902 9907 9913 9917 9921 9926 9933 9939 9944 9949 9954
9809 9809 9809 9808 9808 9807 9807 9806 9805 9803 9802 9801 9801 9800 9800 9799 9800 9800 9800 9800 9800 9800 9800 9800 9801 9802 9802 9802 9802 9803 9803 9804 9805 9806 9807 9808 9809 9811 9812 9813 9815 9816 9818 9820 9823 9826 9829 9832 9834 9837 9839 9842 9845 9849 9853 9857 9861 9864 9868 9871 9875 9880 9885 9889 9895 9900 9903 9907 9912 9918 9924 9929 9934 9938
9804 9804 9803 9803 9802 9802 9801 9801 9800 9799 9798 9797 9796 9796 9795 9794 9794 9794 9794 9794 9794 9795 9794 9794 9795 9796 9796 9796 9796 9797 9797 9798 9798 9799 9800 9801 9802 9803 9804 9806 9807 9809 9811 9813 9814 9817 9819 9822 9824 9827 9829 9831 9834 9838 9843 9846 9849 9853 9856 9859 9863 9868 9872 9876 9881 9885 9888 9892 9897 9904 9909 9914 9919 9923
9799 9799 9798 9798 9797 9797 9796 9795 9794 9793 9792 9792 9791 9791 9790 9790 9789 9789 9789 9789 9789 9789 9789 9789 9790 9791 9791 9791 9791 9791 9791 9792 9792 9793 9793 9794 9795 9796 9797 9799 9800 9801 9803 9805 9807 9809 9811 9813 9816 9818 9820 9822 9826 9830 9833 9836 9839 9842 9845 9848 9852 9855 9859 9864 9868 9872 9875 9878 9884 9890 9895 9900 9904 9908
9794 9794 9793 9793 9792 9791 9791 9790 9789 9788 9787 9787 9786 9785 9785 9784 9784 9784 9784 9784 9784 9784 9784 9784 9784 9785 9786 9786 9785 9786 9786 9786 9786 9787 9787 9788 9789 9790 9791 9792 9793 9794 9796 9797 9799 9801 9803 9805 9808 9810 9812 9815 9818 9821 9824 9827 9829 9832 9836 9839 9842 9845 9849 9853 9856 9860 9863 9866 9870 9876 9881 9885 9890 9894
9789 9789 9788 9788 9787 9787 9786 9785 9784 9783 9782 9781 9781 9780 9780 9779 9779 9779 9779 9779 9779 9779 9779 9779 9779 9780 9780 9781 9780 9780 9780 9780 9781 9781 9782 9782 9783 9784 9785 9786 9787 9788 9789 9791 9792 9794 9796 9798 9800 9802 9805 9807 9810 9813 9815 9818 9821 9824 9827 9829 9832 9836 9839 9842 9846 9849 9852 9855 9859 9864 9869 9873 9878 9882
9784 9784 9784 9784 9783 9782 9781 9780 9779 9778 9777 9777 9776 9775 9775 9774 9774 9773 9773 9774 9774 9774 9774 9774 9774 9774 9775 9775 9775 9775 9775 9775 9775 9776 9776 9777 9777 9778 9779 9780 9781 9782 9783 9785 9786 9788 9789 9791 9793 9795 9797 9800 9802 9805 9807 9809 9812 9815 9818 9820 9823 9826 9829 9832 9836 9839 9842 9845 9849 9854 9858 9862 9867 9870
9779 9779 9779 9779 9779 9778 9777 9775 9774 9774 9773 9772 9771 9771 9770 9769 9769 9769 9769 9769 9769 9769 9769 9769 9769 9769 9770 9771 9770 9770 9771 9770 9770 9771 9771 9772 9772 9773 9773 9774 9775 9776 9777 9779 9780 9781 9783 9785 9786 9788 9790 9792 9795 9797 9799 9801 9804 9806 9809 9812 9814 9817 9820 9823 9826 9829 9832 9835 9839 9843 9847 9852 9856 9859
9775 9774 9774 9774 9774 9773 9772 9771 9770 9769 9768 9768 9767 9766 9765 9765 9764 9764 9764 9764 9764 9764 9764 9764 9764 9764 9765 9766 9766 9766 9766 9766 9766 9766 9766 9767 9767 9768 9769 9769 9770 9771 9772 9773 9774 9775 9777 9778 9780 9782 9783 9785 9787 9790 9792 9794 9796 9798 9801 9803 9806 9808 9811 9814 9817 9820 9823 9827 9830 9834 9838 9842 9846 9850